Powrót do katalogu

CZ-6A R/B

AktywnySSO
NORAD 60214·ROCKET BODY·🇨🇳 China

Wystrzelony Jul 4, 2024 z Taiyuan Satellite Launch Center

Loading…

Następne Przeloty (najbliższe 24 godziny)

TLE

ŚwieżeSource: Space-Track

Epoka: Sep 14, 2026, 13:26 UTC

1 60214U 24126D   26257.56032952  .00002936  00000-0  15402-3 0  9997
2 60214  97.7704 290.4403 0067017 171.1536 189.0894 15.14663487120968

Śledź CZ-6A R/B w czasie rzeczywistym z AllMySat

Download on the App Store